Погода в Ванаваре

Хотите узнать прогноз погоды в Ванаваре? Тогда Вам сюда: Погода в Ванаваре

Поиск расширенной информации на нашем сайте:

Полезная информация:

Новости сайта



02.01.2020
Опубликован Долгосрочный прогноз погоды по городам России и ближнего зарубежья на январь 2020 года.
Карты: Прогноз на январь и февраль 2020 года, Сравнение прогнозируемой аномалии приземной температуры воздуха на январь 2020 года по разным моделям.




Погода в Ванаваре - сегодня

Время (UTC), дата Ветер
(°,м/с) 
Видим.   Явления Облачность Т
(°С)
Тd
(°С)
f(%) Тe
(°С)
Pmin
(гПа)
dP
(гПа)
Po
(мм)
O2
(г/м3)
Тmin Tmax R s Состояние
почвы
21 23.11.20 тихо ()   20000 м    4/0 средняя, верхняя 
[Ac trans|Ci fib]
-14 -14.3 98 -14  1035  2.1  750  320           
00 24.11.20 тихо ()   20000 м    ясно 
-21.5 -23 88 -22  1038.1  1.9  752  330  -21.5      27  равномерный
сухой снег
100% 
03 24.11.20 220 (ЮЗ) 20000 м    10/1 1000 м верхняя 
[Sc|Ci fib]
-23.7 -25.6 84 -24  1039.7  1.3  753  334  -24.4         
06 24.11.20 190 (Ю) 20000 м  слаб. ливневой снег  10/8 600 м кучево-дожд., средняя, верхняя 
[Cb cap|Ac trans|Ci fib]
-15.7 -17.3 87 -16  1038.9  0.3  753  323           
09 24.11.20 230 (ЮЗ) 20000 м  {ливн. осадки}  10/3 1000 м верхняя 
[Sc|Ci fib]
-18.1 -19.2 91 -18  1039.7  0.5  753  327           
12 24.11.20 тихо ()   20000 м  {ливн. осадки}  10/8 1000 м средняя, верхняя 
[Sc|Ac trans|Cs]
-22.4 -24.2 85 -22  1040.6  0.2  753  332    -13.5  0.0     
15 24.11.20 240 (ЮЗ) 20000 м    10/4 600 м кучево-дожд., средняя 
[Cb cap|As op]
-17.6 -19 89 -18  1039.9  753  326           
18 24.11.20 тихо ()   20000 м    10/5 600 м кучево-дожд., средняя 
[Cb cap|As op]
-14.1 -15.1 92 -14  1039.7  0.3  754  321           
21 24.11.20 тихо ()   20000 м    ясно 
-14.4 -15.2 94 -14  1039.9  0.1  754  322           
00 25.11.20 тихо ()   20000 м  слаб. снег  10/3 1000 м средняя, верхняя 
[Sc|Ac trans|Cs]
-16.9 -18.1 90 -17  1040.8  0.6  754  325  -22.4    0.0  27  равномерный
сухой снег
100% 
03 25.11.20 тихо ()   20000 м  слаб. ливневой снег  10/10 600 м кучево-дожд. 
[Cb cap]
-13.2 -14.2 92 -13  1040.7  0.4  754  321           
06 25.11.20 230 (ЮЗ) 20000 м  слаб. ливневой снег  10/10 600 м кучево-дожд. 
[Cb cap]
-9 -10 92 -11  1040.2  0.1  754  315           
09 25.11.20 230 (ЮЗ) 20000 м  слаб. ливневой снег  10/10 600 м кучево-дожд. 
[Cb cap]
-9.7 -11.3 88 -10  1040.9  0.6  755  316           
12 25.11.20 240 (ЮЗ) 10 км  слаб. ливневой снег  10/10 300 м кучево-дожд. 
[Cb cap]
-10.3 -11.6 90 -10  1041.8  0.7  755  317    -8.8  0.2     
15 25.11.20 200 (Ю) 10 км  слаб. ливневой снег  10/10 300 м кучево-дожд. 
[Cb cap]
-14.1 -15.2 91 -14  1042.9  0.6  756  322           
18 25.11.20 240 (ЮЗ) 20000 м  слаб. ливневой снег  10/10 600 м кучево-дожд. 
[Cb cap]
-16.2 -17.4 90 -16  1043.5  0.3  756  325           
21 25.11.20 200 (Ю) 20000 м  слаб. ливневой снег  10/10 600 м кучево-дожд. 
[Cb cap]
-15.7 -16.8 91 -16  1043.4  756  325           
00 26.11.20 190 (Ю) 20000 м  слаб. ливневой снег  10/10 600 м кучево-дожд. 
[Cb cap]
-14.7 -15.9 91 -15  1043.1  -0.1  756  323  -16.8    0.2  28  равномерный
сухой снег
100% 
03 26.11.20 210 (ЮЗ) 20000 м  слаб. ливневой снег  10/10 600 м кучево-дожд. 
[Cb cap]
-13.5 -14.6 91 -13  1043.3  0.3  756  322           
06 26.11.20 240 (ЮЗ) 20000 м  {ливн. осадки}  10/10 600 м кучево-дожд. 
[Cb cap]
-12.1 -13.6 89 -12  1042.5  -0.6  756  320           
09 26.11.20 210 (ЮЗ) 20000 м    10/0 средняя, верхняя 
[Ac trans|Ci fib]
-14 -14.9 93 -14  1042.9  0.1  756  322           
12 26.11.20 210 (ЮЗ) 20000 м    10/3 1000 м средняя, верхняя 
[Sc|Ac trans|Ci fib]
-19.8 -21.4 87 -20  1044  0.3  756  330    -12.1  0.0     
15 26.11.20 240 (ЮЗ) 20000 м  слаб. ливневой снег  10/10 600 м кучево-дожд. 
[Cb cap]
-14.1 -15 93 -14  1042.9  -0.3  756  322           
18 26.11.20 220 (ЮЗ) 20000 м  {ливн. осадки}  10/10 300 м кучево-дожд. 
[Cb cap]
-13.9 -14.9 92 -16  1042.5  -0.4  756  322           
21 26.11.20 210 (ЮЗ) 20000 м    4/0 верхняя 
[Ci fib]
-16.6 -17.8 90 -17  1042.5  -0.3  755  326           
Время (UTC), дата Ветер
(°,м/с) 
Видим.   Явления Облачность Т
(°С)
Тd
(°С)
f(%) Тe
(°С)
Pmin
(гПа)
dP
(гПа)
Po
(мм)
O2
(г/м3)
Тmin Tmax R s Состояние
почвы

Для получения пояснительной информации подведите курсор к названию столбца.

ПОГОДА в Ванаваре - архив

Всё, что Вы хотите узнать о погоде в Ванаваре - удобно и подробно!

Выберите нужную дату (начиная с 1 января 2019* года) и нажмите кнопку "Найти".
Будут отображены архивные сводки погоды по пункту Ванавара, начиная с указанной даты.


Отображать данные в формате CSV (для использования в таблицах Excel)


Внимание! Наш архив погоды предназначен исключительно для личного некоммерческого использования в познавательных целях. Если Вам необходимы официальные справки о состоянии погоды (для производственных, юридических, коммерческих и т.п. целей), обращайтесь в органы Росгидромета.

*Примечание: данная дата относится к архиву по метеостанциям СССР (Россия, СНГ, Балтия).
Архив по метеостанциям Зарубежной Европы и Азии (кроме Китая) хранится 10 дней, по другим регионам земного шара (Китай, Африка, Америка, Австралия, Океания) - 1 день.

Ванавара - район местоположения метеостанции


Название, широта, долгота, высота метеостанции:
Ванавара 60.3°ш. 102.3°д. 260 м над ур. моря [Российская Федерация]

Дополнительная информация

В oтличие oт бoльшинства пoгoдных сайтoв мы публикуем пoдрoбную метеoинфoрмацию в детальнoм прoфессиoнальнoм фoрмате.

Характеристики температуры и влажнoсти вoздуха измеряются на высoте 2 м в тени вдали oт зданий и деревьев.
Скoрoсть ветра измеряется на высoте 10 м (на урoвне рoста челoвека скoрoсть ветра ниже в 1.5-2 раза). Если метеoстанция нахoдится в гoрoде или в лесу, тo скoрoсть ветра занижена на 2-4 м/с пo сравнению с oткрытым местoм. Скoрoсть ветра над акватoриями крупных рек и oзёр, а также на вершинах хoлмoв на 2-5 м/с выше, чем в oбычных услoвиях.
Атмoсфернoе давление в разных тoчках местнoсти мoжет значительнo oтличаться oт давления на метеoстанции, в зависимoсти oт услoвий рельефа (при пoдъёме на 10 м давление пoнижается примернo на 1 мм рт.ст.).